GW1477 Weather Reports


time (UTC)temp
C
wind
direction
speed
KPH
gust
KPH
rain 1hr
cm
rain 24hr
cm
rain mn
cm
humidity
%
barometer
mb
20260510055118 5 175 0.0 0.0 0.00 0.00 0.00 93
20260510054538 5 183 0.0 0.0 0.00 0.00 0.00 93
20260510053314 5 179 0.0 0.0 0.00 0.00 0.00 92
20260510052149 5 179 0.0 0.0 0.00 0.00 0.00 92
20260510051548 5 177 0.0 0.0 0.00 0.00 0.00 91
20260510050912 5 177 0.0 0.0 0.00 0.00 0.00 91
20260510050332 5 178 0.0 0.0 0.00 0.00 0.00 90
20260510045721 5 178 0.0 0.0 0.00 0.00 0.00 90
20260510045110 5 177 0.0 0.0 0.00 0.00 0.00 91
20260510043931 5 179 0.0 0.0 0.00 0.00 0.00 90
20260510043338 6 180 0.0 0.0 0.00 0.00 0.00 90
20260510042711 6 178 0.0 0.0 0.00 0.00 0.00 89
20260510042145 6 179 0.0 0.0 0.00 0.00 0.00 89
20260510041533 6 179 0.0 0.0 0.00 0.00 0.00 89
20260510040924 6 177 0.0 0.0 0.00 0.00 0.00 88
20260510040343 6 179 0.0 0.0 0.00 0.00 0.00 88
20260510035747 6 177 0.0 0.0 0.00 0.00 0.00 87
20260510035123 6 178 0.0 0.0 0.00 0.00 0.00 87
20260510034541 7 179 0.0 0.0 0.00 0.00 0.00 87
20260510033910 7 181 0.0 0.0 0.00 0.00 0.00 86
20260510033316 7 178 0.0 0.0 0.00 0.00 0.00 86
20260510032752 7 176 0.0 0.0 0.00 0.00 0.00 85
20260510032147 7 179 0.0 0.0 0.00 0.00 0.00 85
20260510031524 7 180 0.0 0.0 0.00 0.00 0.00 84
20260510030919 7 179 0.0 0.0 0.00 0.00 0.00 84
20260510030328 8 179 0.0 0.0 0.00 0.00 0.00 84
20260510025732 8 177 0.0 0.0 0.00 0.00 0.00 83
20260510025123 8 178 0.0 0.0 0.00 0.00 0.00 83
20260510023940 8 181 0.0 0.0 0.00 0.00 0.00 82
20260510022739 8 179 0.0 0.0 0.00 0.00 0.00 81
20260510021510 9 181 0.0 0.0 0.00 0.00 0.00 80
20260510020952 10 180 0.0 0.0 0.00 0.00 0.00 79
20260510015740 10 143 0.0 1.6 0.00 0.00 0.00 78
20260510015143 10 176 0.0 0.0 0.00 0.00 0.00 77
20260510014511 10 180 0.0 0.0 0.00 0.00 0.00 76
20260510013946 10 177 0.0 0.0 0.00 0.00 0.00 76
20260510012725 10 175 0.0 0.0 0.00 0.00 0.00 75
20260510012131 11 179 0.0 0.0 0.00 0.00 0.00 73
20260510011556 11 179 0.0 0.0 0.00 0.00 0.00 73
20260510010951 11 180 0.0 0.0 0.00 0.00 0.00 71
20260510010348 12 179 0.0 0.0 0.00 0.00 0.00 71
20260510005143 12 177 0.0 1.6 0.00 0.00 0.00 68
20260510004550 12 177 0.0 0.0 0.00 0.00 0.00 68
20260510003307 13 177 0.0 0.0 0.00 0.00 0.00 65
20260510002716 14 173 0.0 0.0 0.00 0.00 0.00 62
20260510001511 15 178 0.0 0.0 0.00 0.00 0.00 59
20260510000943 15 180 0.0 0.0 0.00 0.00 0.00 59
20260510000349 15 187 0.0 0.0 0.00 0.00 0.00 58
20260509235710 15 178 0.0 0.0 0.00 0.00 0.00 59
20260509235126 15 147 1.6 1.6 0.00 0.00 0.00 59
20260509234543 16 180 0.0 0.0 0.00 0.00 0.00 57
20260509233949 16 193 0.0 0.0 0.00 0.00 0.00 57
20260509233339 16 179 0.0 0.0 0.00 0.00 0.00 56
20260509232130 16 178 0.0 0.0 0.00 0.00 0.00 56
20260509231509 17 185 0.0 0.0 0.00 0.00 0.00 54
20260509230951 17 180 0.0 0.0 0.00 0.00 0.00 52
20260509230332 17 180 0.0 3.2 0.00 0.00 0.00 52
20260509225146 17 274 0.0 1.6 0.00 0.00 0.00 52
20260509224535 17 174 3.2 4.8 0.00 0.00 0.00 52
20260509223928 17 213 0.0 3.2 0.00 0.00 0.00 52
20260509223343 17 176 0.0 4.8 0.00 0.00 0.00 53
20260509222130 17 255 6.4 6.4 0.00 0.00 0.00 52
20260509220917 17 274 3.2 9.7 0.00 0.00 0.00 52
20260509220325 17 204 1.6 4.8 0.00 0.00 0.00 51
20260509215723 17 178 0.0 11.3 0.00 0.00 0.00 51
20260509215134 17 158 1.6 6.4 0.00 0.00 0.00 50
20260509214520 17 180 0.0 4.8 0.00 0.00 0.00 50
20260509213334 17 190 0.0 11.3 0.00 0.00 0.00 50
20260509212738 17 179 0.0 1.6 0.00 0.00 0.00 48
20260509212145 17 204 1.6 3.2 0.00 0.00 0.00 48
20260509211542 17 353 1.6 6.4 0.00 0.00 0.00 47
20260509210931 17 136 4.8 12.9 0.00 0.00 0.00 45
20260509210318 18 111 1.6 9.7 0.00 0.00 0.00 43
20260509205747 18 181 0.0 1.6 0.00 0.00 0.00 43
20260509205134 18 151 1.6 9.7 0.00 0.00 0.00 43
20260509204537 18 254 0.0 1.6 0.00 0.00 0.00 44
20260509203950 18 191 0.0 6.4 0.00 0.00 0.00 43
20260509203321 18 200 3.2 4.8 0.00 0.00 0.00 42
20260509202753 18 185 0.0 0.0 0.00 0.00 0.00 42
20260509202126 18 183 1.6 3.2 0.00 0.00 0.00 42
20260509201532 18 231 1.6 3.2 0.00 0.00 0.00 42
20260509200939 18 185 3.2 4.8 0.00 0.00 0.00 42
20260509200309 18 194 3.2 3.2 0.00 0.00 0.00 43
20260509195125 18 167 3.2 12.9 0.00 0.00 0.00 44
20260509193915 18 193 3.2 6.4 0.00 0.00 0.00 46
20260509193337 18 193 3.2 9.7 0.00 0.00 0.00 46
20260509192748 18 186 1.6 11.3 0.00 0.00 0.00 47
20260509191527 17 252 3.2 4.8 0.00 0.00 0.00 49
20260509190313 17 191 0.0 4.8 0.00 0.00 0.00 51
20260509185750 17 207 4.8 4.8 0.00 0.00 0.00 51
20260509185114 17 229 6.4 9.7 0.00 0.00 0.00 51
20260509184531 17 172 3.2 4.8 0.00 0.00 0.00 50
20260509183936 17 211 6.4 12.9 0.00 0.00 0.00 52
20260509183343 17 174 8.0 11.3 0.00 0.00 0.00 50
20260509182727 18 181 3.2 6.4 0.00 0.00 0.00 48
20260509182153 17 226 1.6 9.7 0.00 0.00 0.00 52
20260509181515 17 220 6.4 12.9 0.00 0.00 0.00 52
20260509180941 17 213 3.2 11.3 0.00 0.00 0.00 52
20260509180315 17 181 1.6 11.3 0.00 0.00 0.00 51
20260509175737 17 216 3.2 9.7 0.00 0.00 0.00 51
20260509175152 17 179 1.6 9.7 0.00 0.00 0.00 54
20260509174525 18 51 0.0 11.3 0.00 0.00 0.00 50
20260509173310 17 191 1.6 6.4 0.00 0.00 0.00 54
20260509172726 17 163 4.8 9.7 0.00 0.00 0.00 54
20260509171510 16 199 3.2 9.7 0.00 0.00 0.00 57
20260509170921 16 179 0.0 6.4 0.00 0.00 0.00 58
20260509170323 15 189 0.0 3.2 0.00 0.00 0.00 58
20260509165719 15 182 0.0 0.0 0.00 0.00 0.00 58
20260509165132 15 186 0.0 0.0 0.00 0.00 0.00 58
20260509164539 15 17 3.2 4.8 0.00 0.00 0.00 59
20260509163934 15 180 1.6 1.6 0.00 0.00 0.00 59
20260509162115 15 180 0.0 0.0 0.00 0.00 0.00 60
20260509161540 15 182 0.0 1.6 0.00 0.00 0.00 61
20260509160930 15 179 0.0 0.0 0.00 0.00 0.00 60
20260509160345 15 197 0.0 0.0 0.00 0.00 0.00 60
20260509155716 15 163 1.6 4.8 0.00 0.00 0.00 60
20260509154540 15 198 3.2 3.2 0.00 0.00 0.00 59
20260509153940 15 180 4.8 6.4 0.00 0.00 0.00 58
20260509153324 15 173 1.6 3.2 0.00 0.00 0.00 59
20260509152127 15 181 0.0 1.6 0.00 0.00 0.00 59
20260509150915 15 178 1.6 3.2 0.00 0.00 0.00 58
20260509150315 15 208 0.0 0.0 0.00 0.00 0.00 59
20260509145740 15 188 1.6 1.6 0.00 0.00 0.00 60
20260509145127 15 203 0.0 4.8 0.00 0.00 0.00 60
20260509144508 15 179 1.6 1.6 0.00 0.00 0.00 60
20260509143907 15 196 1.6 4.8 0.00 0.00 0.00 61
20260509142746 15 198 4.8 4.8 0.00 0.00 0.00 59
20260509141517 14 172 1.6 1.6 0.00 0.00 0.00 61
20260509140924 13 198 6.4 6.4 0.00 0.00 0.00 65
20260509140344 13 167 1.6 3.2 0.00 0.00 0.00 65
20260509135710 13 181 1.6 1.6 0.00 0.00 0.00 65
20260509135112 13 187 0.0 4.8 0.00 0.00 0.00 66
20260509134545 12 179 1.6 4.8 0.00 0.00 0.00 68
20260509133914 12 200 4.8 4.8 0.00 0.00 0.00 69
20260509132743 11 200 4.8 4.8 0.00 0.00 0.00 71
20260509132132 11 190 1.6 3.2 0.00 0.00 0.00 71
20260509131511 11 233 4.8 4.8 0.00 0.00 0.00 71
20260509130917 11 221 1.6 3.2 0.00 0.00 0.00 72
20260509130311 10 180 3.2 4.8 0.00 0.00 0.00 74
20260509125721 9 181 1.6 3.2 0.00 0.00 0.00 75
20260509125123 9 188 0.0 1.6 0.00 0.00 0.00 77
20260509123935 8 175 0.0 0.0 0.00 0.00 0.00 78
20260509123351 7 178 0.0 0.0 0.00 0.00 0.00 81
20260509122746 7 183 0.0 0.0 0.00 0.00 0.00 85
20260509122142 7 182 0.0 0.0 0.00 0.00 0.00 84
20260509121510 7 182 0.0 0.0 0.00 0.00 0.00 86
20260509120914 6 178 0.0 0.0 0.00 0.00 0.00 86
20260509120320 6 179 0.0 0.0 0.00 0.00 0.00 86
20260509115739 6 182 0.0 0.0 0.00 0.00 0.00 87
20260509115121 5 182 0.0 0.0 0.00 0.00 0.00 88
20260509113926 5 181 0.0 0.0 0.00 0.00 0.00 88
20260509113325 5 181 0.0 0.0 0.00 0.00 0.00 88
20260509112131 5 176 0.0 0.0 0.00 0.00 0.00 89
20260509110934 4 176 0.0 0.0 0.00 0.00 0.00 89
20260509110313 4 176 0.0 0.0 0.00 0.00 0.00 89
20260509104545 3 176 0.0 0.0 0.00 0.00 0.00 90
20260509103940 3 176 0.0 0.0 0.00 0.00 0.00 90
20260509103313 3 176 0.0 0.0 0.00 0.00 0.00 90
20260509102735 3 175 0.0 0.0 0.00 0.00 0.00 90
20260509102123 3 175 0.0 0.0 0.00 0.00 0.00 90
20260509101514 3 175 0.0 0.0 0.00 0.00 0.00 90
20260509100920 3 175 0.0 0.0 0.00 0.00 0.00 90
20260509100325 3 175 0.0 0.0 0.00 0.00 0.00 90
20260509095736 3 176 0.0 0.0 0.00 0.00 0.00 89
20260509095147 3 176 0.0 0.0 0.00 0.00 0.00 89
20260509094533 3 174 0.0 0.0 0.00 0.00 0.00 89
20260509093330 3 176 0.0 0.0 0.00 0.00 0.00 89
20260509092117 3 179 0.0 0.0 0.00 0.00 0.00 89
20260509090945 4 173 0.0 0.0 0.00 0.00 0.00 88
20260509090350 4 176 0.0 0.0 0.00 0.00 0.00 88
20260509085712 4 176 0.0 0.0 0.00 0.00 0.00 87
20260509085139 4 177 0.0 0.0 0.00 0.00 0.00 87
20260509084532 4 176 0.0 0.0 0.00 0.00 0.00 87
20260509083918 4 179 0.0 0.0 0.00 0.00 0.00 87
20260509083337 4 180 0.0 0.0 0.00 0.00 0.00 87
20260509082747 4 177 0.0 0.0 0.00 0.00 0.00 87
20260509080323 4 174 0.0 0.0 0.00 0.00 0.00 86
20260509075754 4 176 0.0 0.0 0.00 0.00 0.00 85
20260509075135 4 176 0.0 0.0 0.00 0.00 0.00 85
20260509073323 5 178 0.0 0.0 0.00 0.00 0.00 86
20260509072738 5 178 0.0 0.0 0.00 0.00 0.00 86
20260509071519 5 175 0.0 0.0 0.00 0.00 0.00 85
20260509070324 5 175 0.0 0.0 0.00 0.00 0.00 86
20260509065751 5 175 0.0 0.0 0.00 0.00 0.00 86
20260509064519 4 175 0.0 0.0 0.00 0.00 0.00 86
20260509063913 4 175 0.0 0.0 0.00 0.00 0.00 86
20260509063311 4 174 0.0 0.0 0.00 0.00 0.00 86
20260509062719 3 174 0.0 0.0 0.00 0.00 0.00 86
20260509062128 4 176 0.0 0.0 0.00 0.00 0.00 85
20260509060912 3 179 0.0 0.0 0.00 0.00 0.00 85
20260509060335 4 180 0.0 0.0 0.00 0.00 0.00 85